Hourly Data Report for October 05, 2014

All times are specified in Local Standard Time (LST). Add 1 hour to adjust for Daylight Saving Time where and when it is observed.

SAINT JOHN A
NEW BRUNSWICK

45°18'58.000" N
65°53'24.000" W
108.80 m
8104901
71609
YSJ

Download Data

Hourly Data (October 2014)
Hourly Data Report for October 5, 2014
Temp Definition
°C
Dew Point Temp Definition
°C
Rel Hum Definition
%
Wind Dir Definition
10's deg

Wind Spd Definition
km/h
Visibility Definition
km
Stn Press Definition
kPa
Hmdx Definition


Wind Chill Definition


Weather Definition


TIME
00:00 Legend Double Dagger 14.4 14.3 99 10 26 16.1 99.53     Rain
01:00 Legend Double Dagger 14.4 14.4 100 11 23 12.9 99.50     Rain
02:00 Legend Double Dagger 14.3 14.3 100 10 23 4.0 99.40     Rain,Fog
03:00 Legend Double Dagger 14.8 14.8 100 12 21 4.0 99.34     Rain,Fog
04:00 Legend Double Dagger 15.2 15.2 100 12 26 6.4 99.29     Rain,Fog
05:00 Legend Double Dagger 15.4 15.3 99 10 29 6.4 99.27     Rain,Fog
06:00 Legend Double Dagger 15.3 15.2 99 12 22 8.1 99.24     Rain,Fog
07:00 Legend Double Dagger 15.6 15.6 100 11 24 8.1 99.21     Rain,Fog
08:00 Legend Double Dagger 15.8 15.5 98 11 28 6.4 99.18     Moderate Rain Showers,Fog
09:00 Legend Double Dagger 15.6 15.6 100 11 25 12.9 99.15     Rain Showers
10:00 Legend Double Dagger 15.9 15.8 99 12 28 6.4 99.12     Rain Showers,Fog
11:00 Legend Double Dagger 16.3 16.3 100 14 21 4.8 99.14     Rain Showers,Fog
12:00 Legend Double Dagger 16.2 16.2 100 14 22 3.2 99.11     Rain Showers,Fog
13:00 Legend Double Dagger 16.3 15.2 93 21 10 16.1 99.15     LegendNANA
14:00 Legend Double Dagger 16.2 16.2 100 20 12 9.7 99.17     Rain Showers,Fog
15:00 Legend Double Dagger 15.4 14.6 95 21 14 12.9 99.21     LegendNANA
16:00 Legend Double Dagger 14.3 13.5 95 18 9 24.1 99.29     LegendNANA
17:00 Legend Double Dagger 13.6 13.0 96 20 11 24.1 99.32     Rain Showers
18:00 Legend Double Dagger 13.1 12.6 97 20 14 24.1 99.38     LegendNANA
19:00 Legend Double Dagger 12.3 12.0 98 22 9 8.1 99.43     Fog
20:00 Legend Double Dagger 11.9 11.9 100 19 4 6.4 99.49     Fog
21:00 Legend Double Dagger 12.4 11.9 97 31 11 6.4 99.62     Fog
22:00 Legend Double Dagger 11.1 10.5 96 28 9 24.1 99.71     LegendNANA
23:00 Legend Double Dagger 9.7 9.1 96 30 8 24.1 99.76     Mainly Clear

Notes on Data Quality.

Legend

  • E = Estimated
  • M = Missing
  • NA = Not Available
  • ‡ = Partner data that is not subject to review by the National Climate Archives
Date modified: